| time (UTC) | temp F | wind direction | speed knots | gust knots | rain 1hr in | rain 24hr in | rain mn in | humidity % | barometer mb |
| 20260504024604 | 50 | 199 | 0.0 | 0.0 | 0.00 | 0.01 | 0.01 | 79 | 1018.4 |
| 20260504023055 | 51 | 199 | 0.0 | 0.0 | 0.00 | 0.01 | 0.01 | 78 | 1018.4 |
| 20260504021554 | 51 | 199 | 0.0 | 0.0 | 0.00 | 0.01 | 0.01 | 77 | 1018.3 |
| 20260504020054 | 52 | 199 | 0.0 | 0.0 | 0.00 | 0.01 | 0.01 | 75 | 1018.1 |
| 20260504014554 | 53 | 199 | 0.0 | 0.0 | 0.00 | 0.01 | 0.01 | 74 | 1017.9 |
| 20260504013053 | 54 | 199 | 0.0 | 0.0 | 0.00 | 0.01 | 0.01 | 72 | 1017.7 |
| 20260504011553 | 55 | 199 | 0.0 | 0.0 | 0.00 | 0.01 | 0.01 | 71 | 1017.7 |
| 20260504010057 | 57 | 199 | 0.0 | 0.0 | 0.00 | 0.01 | 0.01 | 69 | 1017.4 |
| 20260504004553 | 58 | 199 | 0.0 | 0.0 | 0.00 | 0.01 | 0.01 | 68 | 1017.3 |
| 20260504003053 | 59 | 199 | 0.0 | 0.0 | 0.00 | 0.01 | 0.01 | 66 | 1017.1 |
| 20260504001608 | 59 | 246 | 0.0 | 0.0 | 0.00 | 0.01 | 0.01 | 65 | 1017.1 |
| 20260504000050 | 60 | 246 | 0.0 | 0.0 | 0.00 | 0.01 | 0.01 | 64 | 1017.1 |
| 20260503234549 | 61 | 246 | 0.0 | 0.0 | 0.00 | 0.01 | 0.01 | 63 | 1017.0 |
| 20260503233050 | 63 | 246 | 0.0 | 1.7 | 0.00 | 0.01 | 0.01 | 58 | 1017.0 |
| 20260503231548 | 67 | 246 | 0.9 | 2.6 | 0.00 | 0.01 | 0.01 | 49 | 1017.0 |
| 20260503230052 | 68 | 242 | 0.0 | 2.6 | 0.00 | 0.01 | 0.01 | 44 | 1017.0 |
| 20260503224547 | 69 | 265 | 0.0 | 5.2 | 0.00 | 0.01 | 0.01 | 43 | 1017.0 |
| 20260503223047 | 70 | 201 | 0.9 | 6.1 | 0.00 | 0.01 | 0.01 | 42 | 1017.0 |
| 20260503221545 | 70 | 253 | 0.0 | 5.2 | 0.00 | 0.01 | 0.01 | 44 | 1017.0 |
| 20260503220103 | 70 | 46 | 0.9 | 5.2 | 0.00 | 0.01 | 0.01 | 43 | 1016.9 |
| 20260503214546 | 70 | 291 | 0.9 | 7.0 | 0.00 | 0.01 | 0.01 | 44 | 1017.0 |
| 20260503213047 | 71 | 230 | 0.9 | 3.5 | 0.00 | 0.01 | 0.01 | 42 | 1017.0 |
| 20260503211559 | 71 | 257 | 0.9 | 5.2 | 0.00 | 0.01 | 0.01 | 43 | 1017.0 |
| 20260503210042 | 71 | 298 | 1.7 | 7.0 | 0.00 | 0.01 | 0.01 | 43 | 1017.1 |
| 20260503204541 | 70 | 189 | 2.6 | 5.2 | 0.00 | 0.01 | 0.01 | 42 | 1017.2 |
| 20260503203040 | 70 | 246 | 0.9 | 4.3 | 0.00 | 0.01 | 0.01 | 41 | 1017.3 |
| 20260503201540 | 70 | 246 | 1.7 | 6.1 | 0.00 | 0.01 | 0.01 | 45 | 1017.6 |
| 20260503200039 | 70 | 195 | 2.6 | 7.0 | 0.00 | 0.01 | 0.01 | 41 | 1017.8 |
| 20260503194539 | 70 | 243 | 0.9 | 3.5 | 0.00 | 0.01 | 0.01 | 42 | 1018.1 |
| 20260503193045 | 70 | 240 | 2.6 | 7.8 | 0.00 | 0.01 | 0.01 | 41 | 1018.5 |
| 20260503191538 | 69 | 224 | 1.7 | 6.1 | 0.00 | 0.01 | 0.01 | 42 | 1018.8 |
| 20260503190037 | 68 | 292 | 0.0 | 5.2 | 0.00 | 0.01 | 0.01 | 44 | 1019.0 |
| 20260503184534 | 69 | 246 | 0.9 | 3.5 | 0.00 | 0.01 | 0.01 | 44 | 1019.4 |
| 20260503183038 | 67 | 215 | 0.9 | 7.0 | 0.00 | 0.01 | 0.01 | 45 | 1019.7 |
| 20260503181601 | 67 | 320 | 0.9 | 8.7 | 0.00 | 0.01 | 0.01 | 44 | 1019.8 |
| 20260503180136 | 67 | 219 | 0.9 | 6.1 | 0.00 | 0.01 | 0.01 | 46 | 1019.9 |
| 20260503174529 | 67 | 257 | 1.7 | 6.1 | 0.00 | 0.02 | 0.01 | 50 | 1020.0 |
| 20260503173043 | 67 | 265 | 0.9 | 7.0 | 0.00 | 0.02 | 0.01 | 47 | 1020.1 |
| 20260503171526 | 65 | 263 | 1.7 | 6.1 | 0.00 | 0.02 | 0.01 | 49 | 1020.3 |
| 20260503150107 | 59 | 151 | 0.0 | 2.6 | 0.00 | 0.05 | 0.01 | 60 | 1021.4 |
| 20260503081600 | 45 | 323 | 0.0 | 0.0 | 0.00 | 0.56 | 0.00 | 93 | 1017.7 |
| 20260503071555 | 46 | 323 | 0.0 | 0.0 | 0.00 | 0.59 | 0.00 | 92 | 1017.3 |
| 20260503054537 | 49 | 323 | 0.0 | 0.0 | 0.00 | 0.59 | 0.00 | 92 | 1017.0 |
| 20260503053040 | 49 | 323 | 0.0 | 0.0 | 0.00 | 0.59 | 0.00 | 92 | 1016.9 |
| 20260503051534 | 50 | 323 | 0.0 | 0.0 | 0.00 | 0.59 | 0.00 | 92 | 1016.8 |
| 20260503050034 | 50 | 323 | 0.0 | 0.0 | 0.00 | 0.59 | 0.00 | 92 | 1016.7 |
| 20260503044600 | 51 | 323 | 0.0 | 0.0 | 0.00 | 0.59 | 0.00 | 92 | 1016.3 |
| 20260503043026 | 51 | 323 | 0.0 | 0.0 | 0.00 | 0.59 | 0.00 | 93 | 1016.1 |
| 20260503041524 | 52 | 323 | 0.0 | 0.0 | 0.00 | 0.59 | 0.00 | 93 | 1015.8 |
| 20260503040123 | 52 | 323 | 0.0 | 0.0 | 0.00 | 0.59 | 0.00 | 93 | 1015.8 |
| 20260503034522 | 52 | 323 | 0.0 | 0.0 | 0.00 | 0.59 | 0.59 | 93 | 1016.0 |
| 20260503033021 | 52 | 323 | 0.0 | 0.0 | 0.00 | 0.59 | 0.59 | 93 | 1016.4 |
| 20260503031520 | 52 | 323 | 0.0 | 0.0 | 0.00 | 0.59 | 0.59 | 93 | 1016.2 |
| 20260503030019 | 52 | 323 | 0.0 | 0.0 | 0.00 | 0.59 | 0.59 | 92 | 1016.2 |